• In Hungary
  • List of Countries
  • For 7 days
  • Water Temperature
  • Satellite Maps
  • Weather Map
  • News
  • Weather Widgets
  • user-avatar
    Login

    Hourly Weather Egorevskoe

    Today, 20 August, Monday

    Time Temperature Precipitation Wind Pressure Humidity
    00:00 +16°C° 0 mm 2 mps 746 mmHg 72%
    01:00 +16°C° 0 mm 2 mps 746 mmHg 73%
    02:00 +16°C° 0 mm 1 mps 746 mmHg 77%
    03:00 +16°C° 0 mm 1 mps 746 mmHg 78%
    04:00 +16°C° 0 mm 2 mps 746 mmHg 79%
    05:00 +15°C° 0 mm 2 mps 745 mmHg 80%
    06:00 +17°C° 0 mm 2 mps 745 mmHg 75%
    07:00 +19°C° 0 mm 2 mps 745 mmHg 70%
    08:00 +21°C° 0 mm 2 mps 746 mmHg 65%
    09:00 +24°C° 0 mm 3 mps 745 mmHg 60%
    10:00 +25°C° 0 mm 3 mps 745 mmHg 55%
    11:00 +27°C° 0 mm 3 mps 745 mmHg 50%
    12:00 +27°C° 0 mm 3 mps 745 mmHg 50%
    13:00 +27°C° 0 mm 4 mps 745 mmHg 50%
    14:00 +28°C° 0 mm 4 mps 744 mmHg 49%
    15:00 +27°C° 0.3 mm 3 mps 744 mmHg 55%
    16:00 +26°C° 0.3 mm 3 mps 744 mmHg 61%
    17:00 +25°C° 0.3 mm 2 mps 743 mmHg 67%
    18:00 +24°C° 0.1 mm 2 mps 743 mmHg 72%
    19:00 +21°C° 0.1 mm 2 mps 743 mmHg 77%
    20:00 +20°C° 0.1 mm 2 mps 743 mmHg 82%
    21:00 +19°C° 0 mm 2 mps 743 mmHg 83%
    22:00 +19°C° 0 mm 2 mps 742 mmHg 85%
    23:00 +18°C° 0 mm 2 mps 742 mmHg 86%

    Tomorrow, 21 August, Tuesday

    Time Temperature Precipitation Wind Pressure Humidity
    00:00 +18°C° 0 mm 2 mps 742 mmHg 87%
    01:00 +18°C° 0 mm 2 mps 742 mmHg 87%
    02:00 +18°C° 0 mm 3 mps 742 mmHg 88%
    03:00 +17°C° 0 mm 3 mps 741 mmHg 88%
    04:00 +17°C° 0 mm 3 mps 741 mmHg 89%
    05:00 +17°C° 0 mm 3 mps 741 mmHg 89%
    06:00 +19°C° 0 mm 4 mps 741 mmHg 83%
    07:00 +21°C° 0 mm 5 mps 740 mmHg 76%
    08:00 +23°C° 0 mm 6 mps 740 mmHg 70%
    09:00 +24°C° 0.2 mm 6 mps 740 mmHg 67%
    10:00 +26°C° 0.2 mm 7 mps 740 mmHg 64%
    11:00 +27°C° 0.2 mm 7 mps 739 mmHg 60%
    12:00 +26°C° 1.1 mm 7 mps 739 mmHg 65%
    13:00 +24°C° 1.1 mm 7 mps 739 mmHg 69%
    14:00 +24°C° 1.1 mm 7 mps 739 mmHg 73%
    15:00 +23°C° 0.4 mm 6 mps 739 mmHg 74%
    16:00 +23°C° 0.4 mm 5 mps 739 mmHg 74%
    17:00 +22°C° 0.4 mm 4 mps 739 mmHg 74%
    18:00 +20°C° 0 mm 4 mps 739 mmHg 76%
    19:00 +19°C° 0 mm 4 mps 740 mmHg 78%
    20:00 +17°C° 0 mm 3 mps 740 mmHg 79%
    21:00 +16°C° 0 mm 3 mps 741 mmHg 81%
    22:00 +14°C° 0 mm 3 mps 741 mmHg 82%
    23:00 +13°C° 0 mm 3 mps 742 mmHg 84%

    Day after tomorrow, 22 August, Wednesday

    Time Temperature Precipitation Wind Pressure Humidity
    00:00 +13°C° 0 mm 3 mps 742 mmHg 85%
    01:00 +13°C° 0 mm 2 mps 742 mmHg 86%
    02:00 +12°C° 0 mm 2 mps 743 mmHg 87%
    03:00 +12°C° 0 mm 2 mps 743 mmHg 87%
    04:00 +12°C° 0 mm 2 mps 743 mmHg 87%
    05:00 +10°C° 0 mm 2 mps 744 mmHg 88%
    06:00 +12°C° 0 mm 3 mps 744 mmHg 80%
    07:00 +14°C° 0 mm 3 mps 744 mmHg 73%
    08:00 +17°C° 0 mm 4 mps 745 mmHg 65%
    09:00 +18°C° 0 mm 4 mps 745 mmHg 59%
    10:00 +19°C° 0 mm 4 mps 745 mmHg 54%
    11:00 +20°C° 0 mm 5 mps 745 mmHg 48%
    12:00 +20°C° 0 mm 5 mps 745 mmHg 46%
    13:00 +20°C° 0 mm 5 mps 745 mmHg 45%
    14:00 +21°C° 0 mm 5 mps 745 mmHg 43%
    15:00 +20°C° 0 mm 4 mps 746 mmHg 47%
    16:00 +20°C° 0 mm 3 mps 746 mmHg 51%
    17:00 +19°C° 0 mm 3 mps 746 mmHg 55%
    18:00 +17°C° 0 mm 3 mps 746 mmHg 60%
    19:00 +15°C° 0 mm 2 mps 747 mmHg 66%
    20:00 +13°C° 0 mm 2 mps 747 mmHg 71%
    21:00 +13°C° 0 mm 2 mps 748 mmHg 73%
    22:00 +12°C° 0 mm 2 mps 748 mmHg 75%
    23:00 +10°C° 0 mm 2 mps 748 mmHg 77%

    23 August, Thursday

    Time Temperature Precipitation Wind Pressure Humidity
    00:00 +11°C° 0 mm 1 mps 748 mmHg 78%
    01:00 +10°C° 0 mm 1 mps 749 mmHg 79%
    02:00 +10°C° 0 mm 1 mps 749 mmHg 80%
    03:00 +10°C° 0 mm 1 mps 749 mmHg 81%
    04:00 +9°C° 0 mm 1 mps 749 mmHg 82%
    05:00 +9°C° 0 mm 1 mps 749 mmHg 83%
    06:00 +11°C° 0 mm 1 mps 750 mmHg 76%
    07:00 +13°C° 0 mm 1 mps 750 mmHg 69%
    08:00 +16°C° 0 mm 1 mps 750 mmHg 61%
    09:00 +18°C° 0 mm 1 mps 750 mmHg 56%
    10:00 +20°C° 0 mm 1 mps 750 mmHg 51%
    11:00 +19°C° 0 mm 0 mps 750 mmHg 45%
    12:00 +20°C° 0 mm 0 mps 749 mmHg 44%
    13:00 +22°C° 0 mm 1 mps 749 mmHg 42%
    14:00 +22°C° 0 mm 1 mps 749 mmHg 40%
    15:00 +22°C° 0 mm 1 mps 749 mmHg 43%
    16:00 +22°C° 0 mm 1 mps 749 mmHg 46%
    17:00 +21°C° 0 mm 1 mps 748 mmHg 49%
    18:00 +19°C° 0 mm 1 mps 748 mmHg 53%
    19:00 +16°C° 0 mm 1 mps 748 mmHg 57%
    20:00 +14°C° 0 mm 1 mps 748 mmHg 61%
    21:00 +14°C° 0 mm 1 mps 749 mmHg 62%
    22:00 +13°C° 0 mm 1 mps 749 mmHg 64%
    23:00 +13°C° 0 mm 1 mps 749 mmHg 66%

    24 August, Friday

    Time Temperature Precipitation Wind Pressure Humidity
    00:00 +12°C° 0 mm 1 mps 749 mmHg 67%
    01:00 +12°C° 0 mm 1 mps 749 mmHg 69%
    02:00 +12°C° 0 mm 1 mps 749 mmHg 70%
    03:00 +11°C° 0 mm 1 mps 748 mmHg 72%
    04:00 +11°C° 0 mm 1 mps 748 mmHg 73%
    05:00 +11°C° 0 mm 1 mps 748 mmHg 74%
    06:00 +13°C° 0 mm 2 mps 748 mmHg 69%
    07:00 +15°C° 0 mm 2 mps 748 mmHg 64%
    08:00 +17°C° 0 mm 2 mps 748 mmHg 59%
    09:00 +19°C° 0 mm 2 mps 748 mmHg 55%
    10:00 +20°C° 0 mm 2 mps 748 mmHg 51%
    11:00 +23°C° 0 mm 2 mps 748 mmHg 46%
    12:00 +23°C° 0 mm 2 mps 748 mmHg 45%
    13:00 +24°C° 0 mm 2 mps 747 mmHg 43%
    14:00 +24°C° 0 mm 2 mps 747 mmHg 42%
    15:00 +24°C° 0 mm 2 mps 747 mmHg 45%
    16:00 +24°C° 0 mm 2 mps 746 mmHg 49%
    17:00 +23°C° 0 mm 1 mps 746 mmHg 53%
    18:00 +20°C° 0 mm 2 mps 746 mmHg 57%
    19:00 +18°C° 0 mm 2 mps 746 mmHg 60%
    20:00 +16°C° 0 mm 2 mps 746 mmHg 64%
    21:00 +16°C° 0 mm 2 mps 746 mmHg 66%
    22:00 +15°C° 0 mm 2 mps 746 mmHg 67%
    23:00 +14°C° 0 mm 2 mps 746 mmHg 68%

    25 August, Saturday

    Time Temperature Precipitation Wind Pressure Humidity
    00:00 +14°C° 0 mm 2 mps 746 mmHg 69%
    01:00 +14°C° 0 mm 2 mps 746 mmHg 70%
    02:00 +13°C° 0 mm 2 mps 746 mmHg 70%
    03:00 +13°C° 0 mm 2 mps 746 mmHg 71%
    04:00 +13°C° 0 mm 2 mps 746 mmHg 72%
    05:00 +13°C° 0 mm 2 mps 746 mmHg 73%
    06:00 +15°C° 0 mm 2 mps 746 mmHg 68%
    07:00 +17°C° 0 mm 2 mps 746 mmHg 63%
    08:00 +19°C° 0 mm 3 mps 746 mmHg 59%
    09:00 +20°C° 0 mm 3 mps 746 mmHg 53%
    10:00 +22°C° 0 mm 3 mps 746 mmHg 48%
    11:00 +25°C° 0 mm 4 mps 746 mmHg 42%
    12:00 +25°C° 0 mm 3 mps 746 mmHg 41%
    13:00 +26°C° 0 mm 3 mps 746 mmHg 41%
    14:00 +26°C° 0 mm 3 mps 745 mmHg 40%
    15:00 +25°C° 0 mm 3 mps 745 mmHg 44%
    16:00 +25°C° 0 mm 3 mps 745 mmHg 49%
    17:00 +24°C° 0 mm 2 mps 744 mmHg 53%
    18:00 +21°C° 0 mm 3 mps 744 mmHg 57%
    19:00 +19°C° 0 mm 3 mps 744 mmHg 61%
    20:00 +17°C° 0 mm 3 mps 744 mmHg 65%
    21:00 +17°C° 0 mm 3 mps 744 mmHg 65%
    22:00 +16°C° 0 mm 3 mps 745 mmHg 65%
    23:00 +16°C° 0 mm 2 mps 745 mmHg 66%
    Show more